Weather History for Lynchburg, VA

Change the Weather History Date:

Sunday, March 9, 2014

  Actual Average Record
Temperature  
Mean Temperature 48 °F 44 °F  
Max Temperature 61 °F 55 °F 79 °F (2000)
Min Temperature 34 °F 32 °F 9 °F (1996)
Degree Days  
Heating Degree Days 17 21  
Month to date heating degree days 249 203  
Since 1 July heating degree days 3763 3627  
Cooling Degree Days 0 0  
Month to date cooling degree days 0 0  
Year to date cooling degree days 0 0  
Moisture  
Dew Point 29 °F    
Average Humidity 44    
Maximum Humidity 64    
Minimum Humidity 23    
Precipitation  
Precipitation 0.00 in 0.11 in 1.06 in (1976)
Month to date precipitation 1.00 0.97  
Year to date precipitation 8.08 7.04  
Snow  
Snow 0.00 in - - ()
Month to date snowfall 2.4  
Since 1 July snowfall 14.4  
Snow Depth 0.00 in    
Sea Level Pressure  
Sea Level Pressure 30.02 in    
Wind  
Wind Speed 5 mph (West)    
Max Wind Speed 14 mph    
Max Gust Speed 21 mph    
Visibility 10 miles    
Events      
T = Trace of Precipitation, MM = Missing Value Source: NWS Daily Summary

Daily Weather History Graph

Daily Weather History Graph

Search for Another Location

Airport:

Trip Planner

Search our weather history database for the weather conditions in past years. The results will help you decide how hot, cold, wet, or windy it might be!

Date:

Astronomy

Mar. 09, 2014 Rise Set
Actual Time 7:36 AM EDT 7:18 PM EDT
Civil Twilight 7:10 AM EDT 7:44 PM EDT
Nautical Twilight 6:40 AM EDT 8:14 PM EDT
Astronomical Twilight 6:10 AM EDT 8:45 PM EDT
Moon 1:15 PM EDT (3/9) 3:55 AM EDT (3/9)
Length of Visible Light 12h 33m
Length of Day
11h 41m
First Quarter, 61% of the Moon is Illuminated
Mar 9
First Quarter
Mar 16
Full
Mar 23
Last Quarter
Mar 30
New
Apr 7
First Quarter

Hourly Weather History & Observations

Time (EDT) Temp. Windchill Dew Point Humidity Pressure Visibility Wind Dir Wind Speed Gust Speed Precip Events Conditions
12:54 AM 44.1 °F 42.5 °F 30.0 °F 58% 29.96 in 10.0 mi SW 3.5 mph - N/A   Clear
1:54 AM 54.0 °F - 28.0 °F 37% 29.95 in 10.0 mi WNW 4.6 mph - N/A   Clear
3:54 AM 46.9 °F - 28.9 °F 50% 29.94 in 10.0 mi Calm Calm - N/A   Scattered Clouds
4:54 AM 54.0 °F - 34.0 °F 47% 29.94 in 10.0 mi West 4.6 mph - N/A   Partly Cloudy
5:54 AM 51.1 °F - 34.0 °F 52% 29.96 in 10.0 mi WSW 4.6 mph - N/A   Clear
6:54 AM 52.0 °F - 35.1 °F 53% 29.99 in 10.0 mi West 6.9 mph - N/A   Mostly Cloudy
7:54 AM 52.0 °F - 34.0 °F 50% 30.01 in 10.0 mi Variable 5.8 mph - N/A   Clear
8:54 AM 54.0 °F - 35.1 °F 49% 30.05 in 10.0 mi Variable 5.8 mph - N/A   Clear
9:54 AM 55.0 °F - 33.1 °F 43% 30.07 in 10.0 mi Variable 5.8 mph 18.4 mph N/A   Clear
10:54 AM 55.9 °F - 33.1 °F 42% 30.07 in 10.0 mi Variable 4.6 mph - N/A   Clear
11:54 AM 55.9 °F - 32.0 °F 40% 30.09 in 10.0 mi WSW 10.4 mph 18.4 mph N/A   Clear
12:54 PM 57.9 °F - 32.0 °F 37% 30.08 in 10.0 mi SW 10.4 mph 16.1 mph N/A   Clear
1:54 PM 57.9 °F - 30.0 °F 35% 30.07 in 10.0 mi Variable 6.9 mph 16.1 mph N/A   Clear
2:54 PM 59.0 °F - 27.0 °F 29% 30.05 in 10.0 mi WSW 9.2 mph 18.4 mph N/A   Clear
3:54 PM 59.0 °F - 24.1 °F 26% 30.05 in 10.0 mi West 10.4 mph - N/A   Clear
4:54 PM 60.1 °F - 24.1 °F 25% 30.03 in 10.0 mi West 8.1 mph - N/A   Clear
5:54 PM 59.0 °F - 21.0 °F 23% 30.02 in 10.0 mi West 5.8 mph - N/A   Clear
6:54 PM 55.9 °F - 21.9 °F 27% 30.02 in 10.0 mi WNW 3.5 mph - N/A   Clear
7:54 PM 48.9 °F - 23.0 °F 36% 30.03 in 10.0 mi Calm Calm - N/A   Clear
8:54 PM 44.1 °F 42.5 °F 26.1 °F 49% 30.03 in 10.0 mi NNW 3.5 mph - N/A   Clear
9:54 PM 39.9 °F - 25.0 °F 55% 30.06 in 10.0 mi Calm Calm - N/A   Clear
10:54 PM 39.0 °F - 25.0 °F 57% 30.04 in 10.0 mi Calm Calm - N/A   Clear
11:54 PM 37.9 °F - 26.1 °F 62% 30.02 in 10.0 mi Calm Calm - N/A   Clear
12:54 AM 35.1 °F - 25.0 °F 67% 30.01 in 10.0 mi Calm Calm - N/A   Clear